Weather in Parusnoye

Russia / Sakhalin District     48°19′26″N   142°09′31″E
temp.,
°C
wind,
m/s
gust,
m/s
humid.,
%
clouds,
%
prec.,
mm/h
press.,
hPa
HPBL,
m
11 april, sun
sun1123:00−2se11954 0.0 102622
02:00−2sse11930 0.0 102636
05:00−2s12945 0.0 102642
08:000s14925 0.0 1026104
11:00+6sw512695 0.0 1025441
14:00+6sw7157099 0.0 1024655
17:00+5ssw71778100 0.0 1022601
20:00+4ssw71981100 0.0 1022570
12 april, mon
mon1223:00+3sw7178986 0.0 1023620
02:00+3sw61495100 0.0 1022568
05:00+3ssw61294100 0.0 1021529
08:00+4ssw71491100 0.0 1020656
11:00+4sw81792100 0.1 1019676
14:00+4sw81792100 0.0 1018548
17:00+4sw61493100 0.0 1017589
20:00+4ssw61491100 0.0 1017695
13 april, tue
tue1323:00+4ssw71784100 0.0 1016734
02:00+4sw71885100 0.0 1015795
05:00+4sw81981100 0.1 1012861
08:00+5ssw8198495 0.0 1010838
11:00+6ssw91886100 0.0 10081265
14:00+5ssw81795100 0.1 1006805
17:00+5ssw81596100 3.1 1003959
20:00+5ssw101895100 5.2 10011147
14 april, wed
wed1423:00+6sse51792100 10.2 9981480
02:00+4wsw2999100 7.3 993787
05:00−1wnw8139177 9.3 995570
08:00−2wnw6128386 0.0 998808
11:00−1wsw71174100 0.5 10011356
14:000w7116594 0.6 10031739
17:00+1w6105588 0.6 10041736
20:00−1w486468 0.1 1007536
15 april, thu
thu1523:00−1wnw486225 0.1 1009527
02:00−2wnw59560 0.0 1010803
05:00−2nw48585 0.0 1012494
08:00−1wnw256010 0.0 1014745
11:00+2wsw355517 0.1 10151252
14:00+3w45504 0.0 10161240
17:00+2w33500 0.0 1017907
20:000sw22720 0.0 101943